Weather in Kaa-Khem

Russia / Tyva Republic     51°41′50″N   94°33′34″E
temp.,
°C
wind,
m/s
gust,
m/s
humid.,
%
clouds,
%
prec.,
mm/h
press.,
hPa
HPBL,
m
5 march, fri
fri501:00−17ene11831 0.0 103320
04:00−18ene11860 0.0 103220
07:00−19ese019136 0.0 103220
10:00−14sse118329 0.0 102997
13:00−11sse117665 0.0 1026262
16:00−9w2279100 0.0 1024229
19:00−11sw1183100 0.0 102721
22:00−11sse1187100 0.1 103021
6 march, sat
sat601:00−13sw119198 0.1 103521
04:00−17e119772 0.0 103520
07:00−16e019185 0.1 103620
10:00−12sw1189100 0.0 1033112
13:00−10sw1183100 0.0 1029256
16:00−8w1184100 0.0 1026209
19:00−13wnw019094 0.0 102721
22:00−13ssw1187100 0.0 102721
7 march, sun
sun701:00−15ssw1191100 0.0 102720
04:00−16sse009587 0.0 102620
07:00−17wsw009892 0.0 102820
10:00−13ssw1192100 0.0 1026123
13:00−10sw1186100 0.0 1025244
16:00−8w1086100 0.0 1024222
19:00−10w1190100 0.0 102721
22:00−11nw0189100 0.0 102921
8 march, mon
mon801:00−15sse119180 0.0 103021
04:00−16ene11929 0.0 103020
07:00−17nnw009034 0.0 103120
10:00−12sw118880 0.0 102981
13:00−9sw108269 0.0 1026228
16:00−6wsw108343 0.0 1024230
19:00−12wsw119326 0.0 102521
22:00−14wsw01933 0.0 102621
9 march, tue
tue901:00−15ssw119533 0.0 102620
04:00−14ene0093100 0.0 102720
07:00−13wnw0093100 0.0 103020
10:00−10ssw2290100 0.0 1030153
13:00−7sw108396 0.0 1029287
16:00−6sw118353 0.0 1028266
19:00−11nnw119242 0.0 103021
22:00−11sw018898 0.0 103021